Regional Weather Roundup
Issued by NWS Kansas City/Pleasant Hill, MO

Home | Current Version | Previous Version | Text Only | Print | Product List | Glossary On
Versions: 1 2 3 4 5 6 7 8 9 10 11 12 13 14 15 16 17 18 19 20 21 22 23 24 25 26 27 28 29 30 31 32 33 34 35 36 37 38 39 40 41 42 43 44 45 46 47 48 49 50
000
ASUS43 KEAX 301010
RWREAX

WEATHER ROUNDUP FOR EASTERN KANSAS AND NORTHWEST MISSOURI
NATIONAL WEATHER SERVICE KANSAS CITY/PLEASANT HILL MO
500 AM CDT SUN AUG 30 2015

KSZ040-057-103>105-MOZ028-029-037-043-301100-
...KANSAS CITY METROPOLITAN AREA...

CITY           SKY/WX    TMP DP  RH WIND       PRES   REMARKS
K.C. INTL      MOCLDY    65  60  84 E3        30.02S
K.C. DOWNTOWN  CLOUDY    70  67  90 N5        30.01S
LEES SUMMIT    CLOUDY    68  66  93 NE6       30.02S
OLATHE - IXD   MOCLDY    65  65 100 N5        30.02S
OLATHE - OJC   CLOUDY    67  66  97 NE5       30.01S
LAWRENCE       CLOUDY    65  64  97 CALM      30.01S FOG

$$

MOZ001>008-011>017-020>025-030>033-038>040-044>046-053-054-301100-
...NORTHERN AND CENTRAL MISSOURI...

CITY           SKY/WX    TMP DP  RH WIND       PRES   REMARKS
ST. JOSEPH     PTCLDY    60  60 100 CALM      30.02S FOG
MOSBY          MOSUNNY   63  63 100 CALM      30.02S FOG
WARRENSBURG    FOG       66  64  94 CALM      30.01S VSB 1/4
WHITEMAN AFB   FOG       67  67  99 NE5       29.99S VSB 1/4
CLINTON        CLEAR     66  66 100 CALM      29.99S FOG
SEDALIA        CLOUDY    69  67  93 N3        30.01S FOG
WARSAW         NOT AVBL
CHILLICOTHE      N/A     69  67  93 NE3       30.03S
KIRKSVILLE     FOG       68  67  96 NE5       30.04R VSB 1/4

$$

MOZ041-047>049-056>058-063>065-088>090-097-301100-
...EASTERN AND SOUTHERN MISSOURI...

CITY           SKY/WX    TMP DP  RH WIND       PRES   REMARKS
ST. LOUIS INTL MOCLDY    73  65  75 CALM      30.01S
SPIRIT OF STL  CLEAR     69  66  90 CALM      30.00R
COLUMBIA       FOG       67  67 100 CALM      30.01S VSB 1
JEFFERSON CITY CLEAR     68  66  93 CALM      30.00R FOG
ROLLA          MOCLDY    66  64  93 SE8       30.00F
OSAGE BEACH    CLEAR     68  64  88 CALM      30.00S
SPRINGFIELD    PTCLDY    69  65  86 S10       29.99S
BRANSON        CLOUDY    68  68 100 CALM      30.01F FOG
JOPLIN         FOG       68  68 100 CALM      29.98S VSB 1/4
WEST PLAINS    CLOUDY    69  65  86 SE3       30.03F

$$

IAZ060-094-KSZ022-034>040-054-083-096-NEZ052-066-093-301100-
...KANSAS...SOUTHEAST NEBRASKA AND IOWA...

CITY           SKY/WX    TMP DP  RH WIND       PRES   REMARKS
TOPEKA         FOG       60  60 100 CALM      30.01F VSB 1/4
MANHATTAN      CLOUDY    62  61  96 CALM      30.03S FOG
EMPORIA        FOG       63  63 100 NE3       30.01F VSB 1/4
CHANUTE        MOCLDY    66  65  96 N5        30.00S FOG
WICHITA        CLEAR     61  59  93 NW5       30.01F
OMAHA          MOCLDY    62  60  93 SE6       30.03S FOG
LINCOLN        CLOUDY    63  61  93 S6        30.04S
FALLS CITY     CLOUDY    57  56  96 NW3       30.02F FOG
LAMONI         FOG       64  63  96 VRB3      30.04S VSB 1/4
DES MOINES     FOG       61  59  93 CALM      30.03S VSB 1

$$



USA.gov is the U.S. government's official web portal to all federal, state and local government web resources and services.